SCP
0 0 0 0 0 0 0 0 0 0 0 0 0 0 0 0 0 0 0 0 0 0 0 0 0 0 0 0 0 0 0 0 0 0 0 0 1 2 2 2 2 1 1 1
0 0 0 0 0 0 0 0 0 0 0 0 0 0 0 0 0 0 0 0 0 0 0 0 0 0 0 0 0 0 0 0 0 0 0 0 0 1 2 2 2 1 1 1
0 0 0 0 0 0 0 0 0 0 0 0 0 0 0 0 0 0 0 0 0 0 0 0 0 0 0 0 0 0 0 0 0 0 0 0 0 0 1 1 1 1 1 1
0 0 0 0 0 0 0 0 0 0 0 0 0 0 0 0 0 0 0 0 0 0 0 0 0 0 0 0 0 0 0 0 0 0 0 0 0 0 1 1 1 1 1 1
0 0 0 0 0 0 0 0 0 0 0 0 0 0 0 0 0 0 0 0 0 0 0 0 0 0 0 0 0 0 0 0 0 0 0 0 0 0 0 1 1 1 1 1
0 0 0 0 0 0 0 0 0 0 0 0 0 0 0 0 0 0 0 0 0 0 0 0 0 0 0 0 0 0 0 0 0 0 0 0 0 0 0 0 1 1 1 1
0 0 0 0 0 0 0 0 0 0 0 0 0 0 0 0 0 0 0 0 0 0 0 0 0 0 0 0 0 0 0 0 0 0 0 0 0 0 0 0 0 1 1 1
0 0 0 0 0 0 0 0 0 0 0 0 0 0 0 0 0 0 0 0 0 0 0 0 0 0 0 0 0 0 0 0 0 0 0 0 0 0 0 0 0 0 0 0
0 0 0 0 0 0 0 0 0 0 0 0 0 0 0 0 0 0 0 0 0 0 0 0 0 0 0 0 0 0 0 0 0 0 0 0 0 0 0 0 0 0 0 0
0 0 0 0 0 0 0 0 0 0 0 0 0 0 0 0 0 0 0 0 0 0 0 0 0 0 0 0 0 0 0 0 0 0 0 0 0 0 0 0 0 0 0 0
0 0 0 0 0 0 0 0 0 0 0 0 0 0 0 0 0 0 0 0 0 0 0 0 0 0 0 0 0 0 0 0 0 0 0 0 0 0 0 0 0 0 0 0
0 0 0 0 0 0 0 0 0 0 0 0 0 0 0 0 0 0 0 0 0 0 0 0 0 0 0 0 0 0 0 0 0 0 0 0 0 0 0 0 0 0 0 0
0 0 0 0 0 0 0 0 0 0 0 0 0 0 0 0 0 0 0 0 0 0 0 0 0 0 0 0 0 0 0 0 0 0 0 0 0 0 0 0 0 0 0 0
0 0 0 0 0 0 0 0 0 0 0 0 0 0 0 0 0 0 0 0 0 0 0 0 0 0 0 0 0 0 0 0 0 0 0 0 0 0 0 0 0 0 0 0
0 0 0 0 0 0 0 0 0 0 0 0 0 0 0 0 0 0 0 0 0 0 0 0 0 0 0 0 0 0 0 0 0 0 0 0 0 0 0 0 0 0 0 0
0 0 0 0 0 0 0 0 0 0 0 0 0 0 0 0 0 0 0 0 0 0 0 0 0 0 0 0 0 0 0 0 0 0 0 0 0 0 0 0 0 0 0 0
0 0 0 0 0 0 0 0 0 0 0 0 0 0 0 0 0 0 0 0 0 0 0 0 0 0 0 0 0 0 0 0 0 0 0 0 0 0 0 0 0 0 0 0
0 0 0 0 0 0 0 0 0 0 0 0 0 0 0 0 0 0 0 0 0 0 0 0 0 0 0 0 0 0 0 0 0 0 0 0 0 0 0 0 0 0 0 0
0 0 0 0 0 0 0 0 0 0 0 0 0 0 0 0 0 0 0 0 0 0 0 0 0 0 0 0 0 0 0 0 0 0 0 0 0 0 0 0 0 0 0 0
0 0 0 0 0 0 0 0 0 0 0 0 0 0 0 0 0 0 0 0 0 0 0 0 0 0 0 0 0 0 0 0 0 0 0 0 0 0 0 0 0 0 0 0
0 0 0 0 0 0 0 0 0 0 0 0 0 0 0 0 0 0 0 0 0 0 0 0 0 0 0 0 0 0 0 0 0 0 0 0 0 0 0 0 0 0 0 0
0 0 0 0 0 0 0 0 0 0 0 0 0 0 0 0 0 0 0 0 0 0 0 0 0 0 0 0 0 0 0 0 0 0 0 0 0 0 0 0 0 0 0 0
0 0 0 0 0 0 0 0 0 0 0 0 0 0 0 0 0 0 0 0 0 0 0 0 0 0 0 0 0 0 0 0 0 0 0 0 0 0 0 0 0 0 0 0
0 0 0 0 0 0 0 0 0 0 0 0 0 0 0 0 0 0 0 0 0 0 0 0 0 0 0 0 0 0 0 0 0 0 0 0 0 0 0 0 0 0 0 0
0 0 0 0 0 0 0 0 0 0 0 0 0 0 0 0 0 0 0 0 0 0 0 0 0 0 0 0 0 0 0 0 0 0 0 0 0 0 0 0 0 0 0 0
0 0 0 0 0 0 0 0 0 0 0 0 0 0 0 0 0 0 0 0 0 0 0 0 0 0 0 0 0 0 0 0 0 0 0 0 0 0 0 0 0 0 0 0
0 0 0 0 0 0 0 0 0 0 0 0 0 0 0 0 0 0 0 0 0 0 0 0 0 0 0 0 0 0 0 0 0 0 0 0 0 0 0 0 0 0 0 0
Wind_Speed
8 8 7 9 9 8 10 10 9 10 11 12 10 9 9 9 8 8 8 8 8 7 6 6 6 5 5 4 4 3 3 3 4 3 3 3 4 4 3 3 3 3 3 3
6 6 7 11 12 11 12 12 14 15 15 9 8 7 8 8 8 8 8 8 8 8 7 6 6 6 5 5 4 4 4 4 4 3 3 3 3 3 3 3 3 2 3 3
4 3 6 9 8 10 8 8 9 10 9 7 8 8 8 8 7 7 7 7 8 7 7 6 6 6 5 5 4 4 4 4 3 3 3 3 3 3 3 3 3 3 3 3
3 3 7 1 1 4 8 9 9 9 9 8 8 9 8 6 6 7 7 7 7 6 6 6 6 6 5 4 4 4 4 3 3 3 3 3 3 3 3 3 3 3 3 3
3 5 9 4 2 3 5 7 6 9 9 8 8 7 4 4 5 7 7 7 6 6 6 6 6 6 5 4 4 4 4 4 4 4 4 4 3 3 3 3 3 3 3 3
4 5 7 1 2 1 2 6 2 4 7 6 5 6 4 5 7 7 7 6 5 5 5 5 5 5 4 4 4 4 5 5 5 4 4 4 4 4 3 3 2 2 3 3
7 7 9 1 3 4 4 3 2 4 5 5 5 6 6 7 7 6 6 5 5 5 4 5 5 4 4 4 4 5 5 5 5 4 4 3 3 3 3 2 3 3 3 3
6 8 8 5 5 6 4 3 3 4 4 5 7 7 7 7 7 6 5 5 4 4 4 4 4 4 4 4 5 5 4 4 4 4 4 3 3 3 3 2 2 2 2 3
8 7 2 5 6 4 3 4 4 4 5 6 7 7 7 7 6 5 5 4 4 4 4 4 4 4 4 5 5 4 4 4 4 5 4 3 3 3 3 2 2 2 2 2
8 10 8 8 8 7 6 6 6 6 6 6 7 7 6 6 6 5 4 3 3 3 4 4 4 4 4 4 4 4 4 4 4 4 4 4 3 3 3 2 2 2 2 3
9 9 8 8 9 8 7 7 7 6 6 6 6 6 6 5 5 5 3 3 3 3 3 4 4 4 4 4 4 3 3 3 4 3 3 4 4 3 4 3 3 3 3 3
8 6 5 6 4 6 7 8 7 6 6 5 5 5 5 5 4 3 3 3 2 3 3 3 3 4 4 4 3 3 3 3 3 3 3 3 3 3 5 4 6 6 5 5
6 4 6 7 6 5 6 7 6 6 6 5 4 4 4 3 3 3 3 3 3 3 3 3 3 3 4 4 3 3 3 3 2 2 3 3 3 3 3 4 5 5 6 7
7 5 6 6 5 5 5 5 4 4 4 3 3 3 2 2 2 2 3 3 3 2 2 2 2 3 3 3 3 3 3 3 3 2 2 2 2 2 2 3 3 4 5 7
8 7 7 5 5 4 3 2 3 3 2 2 2 2 2 2 2 2 3 2 2 1 2 2 2 3 3 3 3 3 3 2 2 2 2 2 2 2 2 3 3 3 4 5
5 5 5 5 6 5 4 4 4 4 2 2 2 2 2 2 2 2 2 1 1 1 2 2 2 3 3 3 3 2 2 3 3 2 2 2 2 2 2 2 2 3 3 4
4 5 5 6 6 6 5 5 4 4 3 3 3 2 1 1 1 1 1 1 2 2 2 2 2 3 3 2 2 2 2 2 3 2 2 2 2 2 2 2 2 2 3 4
7 6 6 6 6 6 5 4 4 3 3 3 2 2 2 2 2 1 1 1 1 1 1 2 2 3 2 2 2 2 2 1 2 2 2 2 2 2 2 2 2 3 3 4
5 5 5 5 5 5 4 4 4 3 3 3 3 3 2 2 2 1 1 1 1 1 2 2 3 3 2 2 3 1 1 1 1 2 2 2 2 2 1 2 2 3 3 3
3 3 4 4 3 4 4 3 3 3 3 3 3 2 2 2 1 1 1 2 1 1 1 2 2 2 2 2 3 1 1 1 1 1 1 1 1 2 2 2 2 2 3 3
3 3 3 3 3 3 3 3 3 3 3 3 4 3 3 2 2 1 2 2 1 1 2 2 1 1 2 2 2 1 1 1 1 1 1 1 1 1 2 2 2 2 2 3
2 3 3 3 2 2 2 2 3 3 3 3 3 3 2 2 2 1 2 2 1 2 2 1 1 2 2 2 1 1 1 1 1 1 1 1 1 1 2 2 2 2 2 3
3 3 3 3 3 2 1 2 2 3 3 3 3 3 3 2 2 2 1 1 1 2 1 1 2 2 3 1 1 1 1 1 1 1 1 1 1 1 2 2 2 2 3 3
2 3 2 2 2 2 2 2 1 2 2 2 2 3 2 2 1 1 1 1 1 1 1 1 2 2 2 1 0 0 1 1 1 1 1 1 1 1 2 2 2 2 2 3
2 2 2 3 3 2 2 2 2 2 2 1 1 2 2 2 2 1 1 1 1 0 0 1 2 2 1 1 1 1 1 1 1 1 1 1 1 2 2 2 2 2 3 3
3 3 3 3 3 2 2 2 2 2 2 1 1 1 1 1 1 1 1 1 0 0 0 1 1 1 1 1 1 1 1 1 1 1 1 1 2 2 2 2 3 2 3 3
2 2 2 2 2 2 2 2 2 2 2 2 1 1 1 1 1 1 1 1 0 0 0 1 1 1 1 1 1 1 1 1 1 1 1 1 1 2 2 2 2 2 2 2
Wind_Direction
267 276 267 261 256 236 228 239 252 270 277 290 308 312 313 313 318 324 327 331 332 330 332 336 339 336 334 330 331 333 324 320 316 313 308 303 299 297 294 291 286 276 272 274
266 266 269 268 258 245 243 248 254 270 279 293 304 305 307 312 317 318 320 326 328 328 329 330 333 334 333 331 330 329 323 319 317 314 312 307 304 302 298 292 295 295 279 276
266 307 284 261 240 223 228 233 241 253 274 309 305 304 305 309 310 307 313 320 322 322 322 325 326 327 326 323 324 325 321 319 318 316 312 311 309 305 302 301 304 300 298 290
280 289 251 278 92 224 236 246 239 259 282 296 304 306 297 298 304 309 314 318 320 320 322 324 326 327 324 322 326 325 324 325 325 326 322 317 314 312 310 308 307 302 301 307
241 267 274 271 219 210 232 262 242 256 277 296 314 301 287 326 321 311 311 312 315 319 318 318 321 325 327 331 333 334 336 332 327 327 326 323 320 316 315 309 308 308 305 303
219 250 259 295 113 150 221 264 236 255 278 300 316 300 317 337 323 317 317 316 320 323 322 320 325 328 331 337 339 340 337 329 326 326 321 320 319 316 314 317 308 311 319 321
226 247 267 284 140 172 225 300 347 276 281 285 271 289 314 316 314 315 317 318 321 321 322 324 327 329 331 335 339 336 332 327 327 327 324 323 321 321 324 328 329 332 333 332
202 226 252 146 162 211 267 337 305 295 287 280 283 297 302 304 307 312 317 320 322 323 326 330 333 334 332 336 337 337 336 333 336 339 338 334 334 336 336 334 335 334 339 340
213 234 299 181 217 250 277 275 285 286 289 282 284 289 296 302 306 306 310 315 320 321 324 330 336 335 332 334 336 338 342 342 345 346 350 348 346 344 340 342 342 337 340 338
253 258 257 251 252 254 253 262 275 279 281 277 279 286 291 295 300 304 305 308 315 316 321 330 338 340 337 334 335 339 346 347 350 353 358 359 355 350 347 345 343 338 337 332
251 267 275 253 241 249 258 262 269 275 275 271 274 278 282 286 293 299 301 305 305 309 316 326 334 339 343 344 348 353 353 352 354 355 355 360 2 359 350 345 340 332 328 322
241 240 241 270 267 258 256 257 261 269 274 275 267 270 276 280 287 292 295 300 303 311 319 326 335 342 347 350 354 353 352 353 355 356 353 354 354 359 11 360 358 354 347 339
256 266 263 276 281 266 261 267 266 263 266 273 271 265 268 277 282 287 292 297 300 304 315 325 337 345 349 352 353 352 350 345 346 349 350 348 347 350 352 3 12 10 6 2
245 253 263 256 266 274 276 278 276 272 266 265 266 266 262 269 276 280 287 295 299 306 319 328 337 343 347 349 352 351 350 349 346 344 342 343 345 344 341 341 347 358 6 7
237 237 252 274 278 274 281 282 278 273 270 276 268 257 247 249 263 280 297 303 306 318 334 340 338 343 347 346 348 347 344 347 352 347 344 344 343 340 343 345 347 349 352 357
246 250 251 255 261 267 269 262 259 263 256 260 264 262 256 254 264 281 297 301 293 312 328 329 328 335 338 342 343 343 349 352 348 344 346 350 349 348 351 352 350 348 347 345
220 242 247 254 257 261 258 252 253 253 242 242 250 255 247 238 259 281 307 316 314 314 316 313 322 330 333 337 337 334 334 346 353 349 349 347 344 345 346 344 341 336 336 338
231 239 237 240 244 250 255 250 246 240 236 233 229 216 209 214 238 264 290 319 339 339 337 338 331 328 334 339 337 326 327 342 352 351 347 344 340 340 339 335 333 331 330 336
237 235 238 242 242 241 242 241 237 230 225 209 208 212 220 229 233 248 267 274 274 298 326 336 332 342 336 331 334 330 333 344 351 347 348 352 349 344 335 330 328 328 329 334
236 237 239 246 247 238 238 238 224 217 212 201 200 202 208 214 215 219 232 257 270 294 311 311 320 327 329 327 329 321 320 328 339 340 343 345 342 340 338 334 331 329 332 335
233 234 234 239 249 245 236 227 212 211 206 198 198 203 209 215 212 208 222 255 299 326 318 313 322 314 316 322 324 336 337 334 331 327 326 327 331 335 335 334 333 331 331 332
231 234 238 235 235 246 241 223 211 204 197 194 194 192 192 201 204 227 250 258 280 307 322 310 310 316 330 341 347 342 337 335 331 327 320 321 323 326 330 330 327 326 326 327
237 235 234 229 227 237 241 218 206 198 196 196 196 197 202 210 210 213 242 254 279 297 315 299 311 327 346 360 343 333 333 331 325 319 314 312 312 315 316 317 318 320 322 325
234 233 232 221 191 191 210 222 208 200 198 205 205 203 199 199 217 228 250 235 266 301 304 305 326 343 2 7 332 325 324 320 314 310 310 307 307 310 310 312 312 314 316 317
225 217 202 195 201 211 212 192 176 183 189 194 198 199 205 210 210 206 202 199 209 301 311 313 341 356 2 346 336 323 308 301 304 305 300 304 306 307 310 313 313 311 311 311
219 220 221 222 224 213 193 188 194 193 190 191 188 181 176 160 156 165 166 160 170 286 342 325 318 331 342 334 324 315 308 306 309 307 301 302 302 305 307 309 309 306 305 307
217 217 215 217 212 204 197 195 199 201 199 193 185 177 164 147 139 140 145 147 142 126 333 326 323 320 319 318 314 312 303 297 295 295 298 299 300 300 301 300 301 301 301 301